Погода в Роскоммоне

Ирландия     53°37′55″N   8°11′25″W
темп.,
°C
ветер,
м/с
пор.,
м/с
влажн.,
%
обл.,
%
осадки,
мм/ч
давл.,
гПа
погр.,
м
23 апреля, пт
пт2301:00+2в358385 0.0 102681
04:00+2всв3575100 0.0 102593
07:00+3в3883100 0.0 1026156
10:00+10вюв5970100 0.0 1025593
13:00+13юв6855100 0.0 1025943
16:00+14юв5861100 0.0 10241022
19:00+11юв5969100 0.0 1025520
22:00+7вюв31077100 0.0 1026242
24 апреля, сб
сб2401:00+5всв3880100 0.0 1026172
04:00+5всв3777100 0.0 1026139
07:00+5в3688100 0.0 1026142
10:00+11в476859 0.0 1026452
13:00+14вюв57492 0.0 10261046
16:00+15вюв56510 0.0 10261254
19:00+12в59670 0.0 1027586
22:00+6в36910 0.0 1029104
25 апреля, вс
вс2501:00+4всв34920 0.0 103074
04:00+3всв239482 0.0 102948
07:00+4всв239534 0.0 103062
10:00+10вюв467585 0.0 1029436
13:00+14вюв566240 0.0 10291283
16:00+14в556076 0.0 10281355
19:00+12в357411 0.0 1027626
22:00+6вюв239225 0.0 102749
26 апреля, пн
пн2601:00+4в119078 0.0 102710
04:00+4зсз1188100 0.0 102510
07:00+5зсз1183100 0.0 102413
10:00+11зсз4673100 0.0 1022495
13:00+13сз6865100 0.0 10201177
16:00+10сз6987100 0.1 1018766
19:00+9ссз5981100 0.1 1017880
22:00+7ссз49936 0.1 1017351
27 апреля, вт
вт2701:00+4ссз37975 0.1 1017147
04:00+4с389712 0.0 1017174
07:00+4ссв4109599 0.0 1018577
10:00+7св5976100 0.0 10181262
13:00+9св5765100 0.1 10191543
16:00+10св4665100 0.1 10181528
19:00+8с2575100 0.3 1018309
22:00+6ссз378166 0.2 1019177